Location: Catenanuova
(37.5690°N, 14.6870°E)
Time: 07:33:16
(UTC+01:00)

ISS - Visible Passes

Search period start: 05 March 2024 00:00
Search period end: 15 March 2024 00:00
Orbit: 414 x 422 km, 51.6° (Epoch: 05 March)

Date Brightness Start Highest point End Pass type
(mag) Time Alt. Az. Time Alt. Az. Time Alt. Az.
05 Mar -2.6 05:23:46 10° NW 05:26:59 40° NE 05:30:11 10° ESE visible
06 Mar -1.9 04:37:54 23° N 04:38:50 26° NNE 04:41:43 10° E visible
07 Mar -0.5 03:52:09 14° ENE 03:52:09 14° ENE 03:53:00 10° ENE visible
07 Mar -3.8 05:25:07 16° WNW 05:27:37 65° SW 05:30:58 10° SE visible
08 Mar -3.6 04:39:30 68° NE 04:39:32 68° NE 04:42:52 10° ESE visible
09 Mar -0.6 03:54:01 13° ESE 03:54:01 13° ESE 03:54:31 10° ESE visible
09 Mar -2.2 05:27:00 18° WSW 05:27:55 20° SW 05:30:25 10° S visible
10 Mar -1.8 04:41:41 20° S 04:41:41 20° S 04:42:58 10° SSE visible
11 Mar -1.4 18:56:01 10° SE 18:56:04 10° SE 18:56:04 10° SE visible
12 Mar -3.2 19:41:22 10° SW 19:43:53 45° SSW 19:43:53 45° SSW visible
13 Mar -2.9 18:53:27 10° SSW 18:56:27 32° SE 18:58:32 16° ENE visible
13 Mar -0.9 20:30:20 10° W 20:31:31 17° WNW 20:31:31 17° WNW visible
14 Mar -2.6 19:41:36 10° WSW 19:44:47 41° NW 19:45:56 30° NNE visible
